Regional Weather Roundup
Issued by NWS

Home | Current Version | Previous Version | Graphics & Text | Print | Product List | Glossary On
Versions: 1 2 3 4 5 6 7 8 9 10 11 12 13 14 15 16 17 18 19 20 21 22 23 24 25 26 27 28 29 30 31 32 33 34 35 36 37 38 39 40 41 42 43 44 45 46 47 48 49 50
000
ASUS43 KFSD 231202
RWRSD

WEATHER ROUNDUP FOR SOUTH DAKOTA
NATIONAL WEATHER SERVICE SIOUX FALLS SD
700 AM CDT SAT JUL 23 2016

NOTE: "FAIR" INDICATES FEW OR NO CLOUDS BELOW 12,000 FEET WITH NO
SIGNIFICANT WEATHER AND/OR OBSTRUCTIONS TO VISIBILITY.


SDZ001>005-009-010-012>017-231300-
NORTHWEST AND NORTH CENTRAL SOUTH DAKOTA

CITY           SKY/WX    TMP DP  RH WIND       PRES   REMARKS
BUFFALO          N/A     66  62  87 SW9       29.75S
FAITH            N/A     70  66  87 S15       29.78F
MOBRIDGE       LGT RAIN  73  68  84 S28G35    29.73F
$$

SDZ012>016-024>037-041>051-057-063-072>074-231300-
SOUTHWEST AND SOUTH CENTRAL SOUTH DAKOTA

CITY           SKY/WX    TMP DP  RH WIND       PRES   REMARKS
RAPID CTY ARPT CLOUDY    63  56  78 SE7       29.81F
PIERRE         CLOUDY    76  73  91 E8        29.76F
CUSTER         CLEAR     64  50  60 W7        30.00F
ELLSWORTH AFB  CLOUDY    68  57  68 E1        29.81S
PHILIP         FOG       73  73 100 E7        29.77F VSB 1/4
PINE RIDGE     CLEAR     68  63  84 S10       29.86F
WINNER         FAIR      75  62  64 S3        29.78F
$$

SDZ004>011-016>023-039-040-231300-
NORTHEAST SOUTH DAKOTA

CITY           SKY/WX    TMP DP  RH WIND       PRES   REMARKS
ABERDEEN       CLOUDY    74  70  87 E8        29.79S
WATERTOWN      CLOUDY    75  73  93 E8        29.83F
BROOKINGS      TSTM      67  66  97 S13G26    29.92R FOG
SISSETON         N/A     72  68  87 S6        29.80F
$$

SDZ017-020-022-023-036>040-048>070-231300-
SOUTHEAST SOUTH DAKOTA

CITY           SKY/WX    TMP DP  RH WIND       PRES   REMARKS
SIOUX FALLS    TSTM      72  70  93 N7        29.85S
HURON          LGT RAIN  72  69  90 NW7       29.74F
CHAMBERLAIN    CLOUDY    72  69  90 E6        29.78S
MITCHELL       CLOUDY    72  70  93 E9        29.81F
YANKTON        CLOUDY    75  70  83 CALM      29.77S
$$

ABBREVIATIONS USED IN REMARKS
   TC - TEMPERATURE IN CELSIUS
  WCI - WIND CHILL INDEX
   HX - HEAT INDEX
  VSB - VISIBILITY




USA.gov is the U.S. government's official web portal to all federal, state and local government web resources and services.